Location: Brienzwiler
(46.7508°N, 8.1014°E)
Time: 16:31:37
(UTC+00:00)

Cosmos 2278 Rocket - Pass Details

Date: 05 July 2020
Orbit: 841 x 845 km, 71.0° (Epoch: 11 August)

Event Time Altitude Azimuth Distance (km) Brightness Sun altitude
Rises 21:00:41 0° 336° (NNW) 3,416 7.2 -12.6°
Reaches altitude 10° 21:03:16 10° 343° (NNW) 2,477 5.9 -12.8°
Maximum altitude 21:08:41 44° 55° (NE) 1,159 2.9 -13.4°
Enters shadow 21:12:50 17° 122° (ESE) 2,035 3.7 -13.8°
